sat.trackr.live / text

‹ back to catalog

STARLINK-2061

NORAD 48312 · 2021-036AN

PAYLOAD ACTIVE UNKNOWN

§ Identity

Operator
Country
US
Launch date
2021-04-29
Launch site
AFETR
Launch vehicle
Mass (kg)
RCS (m²)

Purposes: comms

External: N2YO · Heavens-Above · Gunter

§ Orbital elements

Epoch: 2026-05-25T03:11:14.719200Z

Period
94.01 min
Inclination
53.1586°
Eccentricity
0.0001145
Mean motion
15.31702858 rev/d
Perigee alt
469.9 km
Apogee alt
471.5 km
Semi-major
6,848.9 km
B*
2.9967e-5
RAAN
92.8730°
Arg perigee
87.1263°
Mean anomaly
272.9869°
Rev number
27,993

§ Raw data

STARLINK-20611 48312U 21036AN  26145.13280925  .00000565  00000+0  29967-4 0  99902 48312  53.1586  92.8730 0001145  87.1263 272.9869 15.31702858279938

JSON: /api/v1/satellites/48312 · /tle

For live sub-satellite position, see the globe view (requires WebGL).

§ Visibility from observer

Set your observer location to see the next 7 days of passes ≥ 10°. The values pass through the URL so the page stays shareable.

No JS? Fill the form by hand. The geolocation button needs JavaScript.